Weather History for EGBB - November, 2012

Change the Weather History Date:

Sunday, November 25, 2012

  Actual Average Record
Temperature  
Mean Temperature 45 °F -  
Max Temperature 48 °F 46 °F 55 °F (2011)
Min Temperature 42 °F 34 °F 26 °F (2010)
Degree Days  
Heating Degree Days 20    
Moisture  
Dew Point 43 °F    
Average Humidity 89    
Maximum Humidity 100    
Minimum Humidity 71    
Precipitation  
Precipitation 0.00 in 0.09 in - ()
Sea Level Pressure  
Sea Level Pressure 29.50 in    
Wind  
Wind Speed 10 mph ()    
Max Wind Speed 17 mph    
Max Gust Speed 25 mph    
Visibility 5.9 miles    
Events Rain    
Averages and records for this station are not official NWS values.
T = Trace of Precipitation, MM = Missing Value Source: Averaged Metar Reports

Daily Weather History Graph

Daily Weather History Graph

Search for Another Location

Airport or City:

Trip Planner

Search our weather history database for the weather conditions in past years. The results will help you decide how hot, cold, wet, or windy it might be!

Date:

Astronomy

Nov. 25, 2012 Rise Set
Actual Time 7:46 AM GMT 4:01 PM GMT
Civil Twilight 7:06 AM GMT 4:41 PM GMT
Nautical Twilight 6:23 AM GMT 5:23 PM GMT
Astronomical Twilight 5:43 AM GMT 6:04 PM GMT
Moon 2:25 PM GMT (11/25) 4:29 AM GMT (11/25)
Length of Visible Light 9h 34m
Length of Day
8h 15m
Waxing Gibbous, 91% of the Moon is Illuminated
Nov 25
Waxing Gibbous
Nov 28
Full
Dec 6
Last Quarter
Dec 13
New
Dec 20
First Quarter

Hourly Weather History & Observations

Time (GMT) Temp. Windchill Dew Point Humidity Pressure Visibility Wind Dir Wind Speed Gust Speed Precip Events Conditions
12:20 AM 46.4 °F 43.5 °F 46.4 °F 100% 29.30 in 3.1 mi NNE 5.8 mph - N/A Rain Light Rain
12:50 AM 46.4 °F 41.9 °F 46.4 °F 100% 29.27 in 1.7 mi NNW 9.2 mph - N/A Rain Rain
1:20 AM 46.4 °F 41.1 °F 46.4 °F 100% 29.24 in - NNW 11.5 mph - N/A Rain Rain
1:50 AM 46.4 °F 41.1 °F 46.4 °F 100% 29.24 in 2.8 mi NW 11.5 mph - N/A Rain Rain
2:20 AM 46.4 °F 41.1 °F 44.6 °F 93% 29.27 in 4.3 mi NW 11.5 mph - N/A Rain Light Rain
2:50 AM 46.4 °F 40.7 °F 44.6 °F 93% 29.27 in 6.2 mi WNW 12.7 mph - N/A Rain Light Rain
3:20 AM 46.4 °F 40.7 °F 44.6 °F 93% 29.30 in 6.2 mi WNW 12.7 mph - N/A Rain Light Rain
3:50 AM 44.6 °F 38.4 °F 44.6 °F 100% 29.33 in 6.2 mi West 12.7 mph 24.2 mph N/A Rain Light Rain
4:20 AM 44.6 °F 37.8 °F 42.8 °F 93% 29.33 in 6.2 mi WNW 15.0 mph - N/A Rain Light Rain
4:50 AM 44.6 °F 38.4 °F 42.8 °F 93% 29.36 in 6.2 mi West 12.7 mph - N/A Rain Light Rain
5:20 AM 44.6 °F 38.8 °F 42.8 °F 93% 29.39 in 6.2 mi West 11.5 mph - N/A Rain Light Rain
5:50 AM 44.6 °F 38.4 °F 42.8 °F 93% 29.39 in 6.2 mi West 12.7 mph - N/A Rain Light Rain
6:20 AM 44.6 °F 37.8 °F 42.8 °F 93% 29.42 in 6.2 mi West 15.0 mph - N/A   Scattered Clouds
6:50 AM 44.6 °F 37.4 °F 41.0 °F 87% 29.44 in 6.2 mi West 16.1 mph - N/A   Mostly Cloudy
7:20 AM 44.6 °F 37.8 °F 41.0 °F 87% 29.47 in 6.2 mi West 15.0 mph - N/A   Mostly Cloudy
7:50 AM 44.6 °F 37.4 °F 39.2 °F 81% 29.50 in 6.2 mi West 16.1 mph - N/A   Mostly Cloudy
8:20 AM 44.6 °F 38.4 °F 39.2 °F 81% 29.53 in 6.2 mi West 12.7 mph 25.3 mph N/A   Mostly Cloudy
8:50 AM 42.8 °F 36.6 °F 37.4 °F 81% 29.56 in 6.2 mi West 11.5 mph - N/A   Partly Cloudy
9:20 AM 42.8 °F 35.8 °F 37.4 °F 81% 29.59 in 6.2 mi West 13.8 mph - N/A   Partly Cloudy
9:50 AM 42.8 °F 35.8 °F 37.4 °F 81% 29.59 in - West 13.8 mph - N/A   Clear
10:20 AM 44.6 °F 38.4 °F 35.6 °F 71% 29.62 in - West 12.7 mph - N/A   Clear
10:50 AM 44.6 °F 38.4 °F 35.6 °F 71% 29.62 in - West 12.7 mph 25.3 mph N/A   Clear
11:20 AM 44.6 °F 38.4 °F 37.4 °F 76% 29.62 in - West 12.7 mph - N/A   Clear
11:50 AM 46.4 °F 41.9 °F 37.4 °F 71% 29.65 in 6.2 mi WSW 9.2 mph - N/A   Partly Cloudy
12:50 PM 46.4 °F 42.9 °F 39.2 °F 76% 29.65 in 6.2 mi WSW 6.9 mph - N/A   Partly Cloudy
1:20 PM 46.4 °F 42.9 °F 39.2 °F 76% 29.62 in 6.2 mi SW 6.9 mph - N/A   Scattered Clouds
1:50 PM 48.2 °F - 41.0 °F 76% 29.62 in 6.2 mi SW 6.9 mph - N/A   Partly Cloudy
2:20 PM 46.4 °F 43.5 °F 41.0 °F 81% 29.62 in 6.2 mi SW 5.8 mph - N/A   Scattered Clouds
2:50 PM 46.4 °F 42.9 °F 42.8 °F 87% 29.62 in 6.2 mi SW 6.9 mph - N/A   Scattered Clouds
3:20 PM 46.4 °F 42.9 °F 42.8 °F 87% 29.62 in 6.2 mi SSW 6.9 mph - N/A Rain Light Rain
3:50 PM 46.4 °F 43.5 °F 42.8 °F 87% 29.62 in 6.2 mi SSW 5.8 mph - N/A   Scattered Clouds
4:20 PM 46.4 °F 44.3 °F 44.6 °F 93% 29.62 in 5.6 mi South 4.6 mph - N/A   Mostly Cloudy
4:50 PM 44.6 °F 41.4 °F 42.8 °F 93% 29.62 in 6.2 mi SSE 5.8 mph - N/A   Mostly Cloudy
5:20 PM 44.6 °F 40.7 °F 42.8 °F 93% 29.59 in 6.2 mi SSE 6.9 mph - N/A   Scattered Clouds
5:50 PM 44.6 °F 40.2 °F 44.6 °F 100% 29.59 in 6.2 mi SSE 8.1 mph - N/A   Light Drizzle
6:20 PM 46.4 °F 41.9 °F 44.6 °F 93% 29.59 in 6.2 mi SSE 9.2 mph - N/A   Light Drizzle
6:50 PM 46.4 °F 41.9 °F 44.6 °F 93% 29.59 in 6.2 mi SSE 9.2 mph - N/A   Light Drizzle
7:20 PM 46.4 °F 41.5 °F 44.6 °F 93% 29.56 in 6.2 mi SSE 10.4 mph - N/A Rain Light Rain
7:50 PM 46.4 °F 41.5 °F 46.4 °F 100% 29.56 in 6.2 mi SSE 10.4 mph - N/A Rain Light Rain
8:20 PM 46.4 °F 41.5 °F 46.4 °F 100% 29.56 in 6.2 mi SSE 10.4 mph - N/A Rain Light Rain
8:50 PM 48.2 °F - 46.4 °F 93% 29.53 in 6.2 mi SSE 11.5 mph - N/A Rain Light Rain
9:20 PM 48.2 °F - 46.4 °F 93% 29.53 in 6.2 mi SSE 12.7 mph - N/A   Scattered Clouds
9:50 PM 48.2 °F - 46.4 °F 93% 29.53 in 6.2 mi SSE 12.7 mph - N/A   Scattered Clouds
10:20 PM 48.2 °F - 46.4 °F 93% 29.50 in 6.2 mi SSE 15.0 mph - N/A Rain Light Rain
10:50 PM 48.2 °F - 46.4 °F 93% 29.47 in 6.2 mi SSE 15.0 mph - N/A Rain Light Rain
11:20 PM 48.2 °F - 46.4 °F 93% 29.47 in 6.2 mi SSE 15.0 mph - N/A Rain Light Rain
11:50 PM 48.2 °F - 46.4 °F 93% 29.47 in 6.2 mi SSE 17.3 mph - N/A Rain Light Rain